Starlink 34788

operational
NORAD ID: 65056 Int'l Des: 2025-165 Owner: SPXS Country: US Constellation: starlink
LEOCIRCULARRETROGRADE

About Starlink 34788

Description loading...

Live Position

Loading 3D Globe...

Upcoming Passes

Altitude History

Altitude vs Time

uPlot chart will show altitude changes over time

Two-Line Element Set

1 65056U 25165A 26022.45721671 .00025134 00000-0 17392-2 0 9995
2 65056 97.6038 101.6526 0001444 40.8718 319.2617 15.05665373 27839
Epoch: Jan 22, 2026 • Age: 18 hours

Current Status

Altitude 551.2 km
Velocity 7.59 km/s
Sub-Earth Point 3.84°N, 88.69°W
Launch Date Jul 31, 2025
Age 0.4 years
Type internet

Technical Details

Classification Payload
Mass 575.00 kg
Dry Mass 530.00 kg
Total Mass 575.00 kg
Length 0.30 m
Diameter 4.10 m
Span 29.00 m
Shape Box + pan
Manufacturer SPXS
Bus Type Starlink V2MO
Phase Status In Orbit
Owner/State SPXS/US

Large Constellations

Loading constellations...